Simultaneous Nadir Overpasses (SNOs) Predictions

Prediction of SNOs between AQUA and METOP-B Satellite Orbit:

Table of predicted SNOs for the next 14.0 days since TLE Epoch: 8/24/2018
Index Date (AQUA) Time (AQUA) Lat,Lon (AQUA) SZA (AQUA ) Date (METOP-B) Time (METOP-B) Lat,Lon (METOP-B) SZA (METOP-B ) Distance(km) Time Diff (sec)
1 08/25/2018 23:39:50 73.97, 179.05 63.49 08/25/2018 23:38:53 73.96, 179.09 63.49 1.89 57
2 08/26/2018 00:29:16 -74.01, -13.39 116.46 08/26/2018 00:29:34 -74.01, -13.47 116.46 2.28 18
3 08/26/2018 01:18:55 74.59, 152.88 64.18 08/26/2018 01:20:02 74.58, 155.31 64.08 71.99 67
4 08/28/2018 19:14:03 73.99,-114.55 64.49 08/28/2018 19:13:12 73.98,-114.46 64.48 3.40 51
5 08/28/2018 20:03:29 -74.03, 53.00 115.46 08/28/2018 20:03:53 -74.03, 52.99 115.46 0.39 24
6 08/31/2018 14:48:15 73.97, -48.05 65.46 08/31/2018 14:47:31 73.99, -48.02 65.50 2.91 44
7 08/31/2018 15:37:42 -74.06, 119.39 114.43 08/31/2018 15:38:12 -74.05, 119.45 114.44 1.92 30
8 09/03/2018 10:22:27 73.99, 18.34 66.51 09/03/2018 10:21:49 74.00, 18.42 66.53 2.94 38
9 09/03/2018 11:11:53 -74.03,-174.11 113.44 09/03/2018 11:12:31 -74.02,-174.22 113.45 3.74 38
10 09/06/2018 05:56:39 73.97, 84.82 67.53 09/06/2018 05:56:09 73.97, 84.74 67.52 2.71 30
11 09/06/2018 06:46:06 -74.06,-107.73 112.37 09/06/2018 06:46:49 -74.08,-107.65 112.36 3.34 43




NCC Satellite Simultaneous Nadir Overpasses (SNOs) Prediction Service
